Langley Air Force Base
KLFI : now visible

Airfield :











YOU CAN JOIN US ON...

 
LOGIN :

Register | Disclaimer

   EN    FR    IT 

 









Legend :    VFR   Marginal VFR   IFR   Intensive IFR   Very Intensive IFR
Visi :
Ceiling :
>= 8 km
>= 3000ft
5 to 8 km
1000 to 3000 ft
1500m to 5 km
500 to 1000 ft
800 to 1500m
200 to 500 ft
< 800m
< 200 ft
Symbols :   Thunderstorms  Fog  Heavy snow  Heavy precipitations  Wind > 20 kt






- Airport Elevation : 11 ft


KLFI - Langley Air Force Base

CURRENT METAR :
  • 232356Z AUTO 31003KT 10SM CLR 15/14 A3002 RMK AO2 SLP172 T01450140 10225 20145 52019 $

EXPIRED METARs :
  • 232256Z AUTO 00000KT 10SM CLR 16/15 A2999 RMK AO2 SLP162 T01600149 $
  • 232156Z AUTO 28003KT 10SM CLR 19/13 A2998 RMK AO2 SLP159 T01880130 $

TAF TAF KLFI
Valid from the 23 at 17:00 until the 24 at 23:00 UTC


231700Z 2317/2423 VRB06KT 9999 SCT050 QNH2998INS TX22/2417Z TN12/2409Z
KZDC FIR / North America



MET'MAP, your aeronautical weather chart ! - Copyright ORBIFLY December 2007 - Disclaimer

ORBIFLY MET'MAP TEAM :

Programming & Development : Alexandra Zaïnal
Concept & original design : Baudouin d'Aumeries
Assistance for programming : Marc-Olivier Méhu
Technical & hardware support : Manuel Goepfert

Contact : metmap@orbifly.com




SOURCES & CREDITS :

   NOAA       Earth
Advisory